Location: Unspecified
(0.0000°N, 0.0000°E)
Time: 22:54:27
(UTC+00:00)

Vanguard 2 Rocket - Pass Details

Date: 10 December 2017
Orbit: 553 x 3328 km, 32.9° (Epoch: 25 April)

Event Time Altitude Azimuth Distance (km) Brightness Sun altitude
Rises 18:59:48 0° 271° (W) 4,577 11.7 -15.3°
Reaches altitude 10° 19:02:56 10° 282° (WNW) 3,952 11.0 -16.0°
Maximum altitude 19:12:24 31° 339° (NNW) 3,516 9.8 -18.2°
Enters shadow 19:24:38 13° 30° (NNE) 5,520 10.4 -21.0°
Drops below altitude 10° 19:26:38 10° 34° (NE) 5,925 - -21.4°
Sets 19:32:54 0° 44° (NE) 7,192 - -22.9°
